Flag for India Past Weather in New Okhla Industrial Development Authority, Uttar Pradesh, India — Yesterday and Last 2 Weeks

Now
63 °F

Clear.


Feels Like: 63 °F
Forecast: 54 / 77 °F
Wind: No wind

Location: New Delhi Palam Airport

Current Time: Dec 5, 2016 at 10:16:40 pm

Latest Report: Dec 5, 2016 at 9:30 pm


Visibility: 1 mi

Pressure: 30.04 "Hg

Humidity: 59%

Dew Point: 48 °F

Location of New Okhla Industrial Development AuthorityLocation

Past Weather in New Okhla Industrial Development Authority — Graph

°F

New Okhla Industrial Development Authority Temperature Yesterday

Maximum temperature yesterday: 79 °F (at 2:30 pm)
Minimum temperature yesterday: 50 °F (at 7:00 am)
Average temperature yesterday: 64 °F

High & Low Weather Summary for the Past Weeks

 TemperatureHumidityPressure
High86 °F (Nov 21, 1:30 pm)100% (Dec 1, 9:30 am)30.18 "Hg (Dec 1, 9:30 am)
Low50 °F (Dec 3, 7:00 am)18% (Nov 27, 3:30 pm)29.86 "Hg (Nov 22, 5:00 pm)
Average67 °F56%29.99 "Hg
* Reported Nov 20 8:30 pm — Dec 5 9:00 pm, New Okhla Industrial Development Authority, Weather by CustomWeather, © 2016

Note: Actual official high and low records may vary slightly from our data, if they occured in-between our weather recording intervals... More about our weather records

Advertising

New Okhla Industrial Development Authority Weather History for the Previous 24 Hours

Scroll right to see more
 ConditionsComfort  
Time TempWeatherWind HumidityBarometerVisibility
9:00 pm
Mon, Dec 5
63 °FClear.No wind59%30.04 "Hg1 mi
8:30 pm63 °FClear.No wind56%30.04 "Hg1 mi
8:00 pm64 °FClear.No wind52%30.04 "Hg1 mi
7:30 pm66 °FClear.3 mph49%30.04 "Hg1 mi
7:00 pm66 °FClear.3 mph49%30.04 "Hg1 mi
6:30 pm70 °FClear.3 mph43%30.01 "Hg1 mi
6:00 pm72 °FClear.3 mph41%30.01 "Hg1 mi
5:30 pm73 °FClear.3 mph38%30.01 "Hg1 mi
5:00 pm73 °FClear.5 mph36%29.98 "Hg1 mi
4:30 pm77 °FClear.8 mph32%29.98 "Hg1 mi
4:00 pm79 °FClear.8 mph30%29.98 "Hg1 mi
3:30 pm79 °FClear.9 mph30%29.98 "Hg1 mi
3:00 pm79 °FClear.9 mph30%29.98 "Hg1 mi
2:30 pm77 °FClear.9 mph34%30.01 "Hg1 mi
2:00 pm77 °FClear.8 mph34%30.01 "Hg1 mi
1:30 pm73 °FClear.7 mph41%30.04 "Hg1 mi
1:00 pm73 °FClear.7 mph41%30.04 "Hg1 mi
12:30 pm73 °FClear.7 mph41%30.07 "Hg1 mi
11:30 am70 °FClear.7 mph46%30.09 "Hg1 mi
10:30 am66 °FClear.6 mph46%30.12 "Hg1 mi
10:00 am64 °FClear.6 mph49%30.12 "Hg1 mi
9:30 am63 °FClear.6 mph52%30.09 "Hg1 mi
8:30 am57 °FFog.No wind77%30.09 "Hg1 mi
8:00 am52 °FFog.No wind77%30.09 "Hg1 mi
7:30 am52 °FFog.No wind77%30.07 "Hg1 mi
7:00 am52 °FFog.No wind77%30.07 "Hg1 mi
6:30 am54 °FFog.No wind77%30.04 "Hg1 mi
6:00 am54 °FFog.No wind77%30.04 "Hg1 mi
5:30 am54 °FFog.No wind77%30.04 "Hg1 mi
5:00 am54 °FFog.No wind77%30.04 "Hg1 mi
4:30 am54 °FFog.No wind77%30.07 "Hg1 mi
4:00 am55 °FFog.No wind77%30.07 "Hg1 mi
3:30 am57 °FFog.No wind77%30.07 "Hg1 mi
3:00 am57 °FFog.No wind77%30.07 "Hg1 mi
2:30 am57 °FFog.No wind77%30.07 "Hg1 mi
2:00 am59 °FClear.No wind63%30.07 "Hg1 mi
1:30 am59 °FClear.No wind63%30.07 "Hg1 mi
1:00 am59 °FClear.No wind63%30.07 "Hg1 mi
12:30 am63 °FClear.No wind56%30.09 "Hg1 mi
12:00 am63 °FClear.No wind56%30.09 "Hg1 mi
11:30 pm
Sun, Dec 4
63 °FClear.No wind56%30.09 "Hg1 mi
10:30 pm63 °FClear.No wind56%30.09 "Hg1 mi
10:00 pm63 °FClear.No wind52%30.09 "Hg1 mi
Weather by CustomWeather, © 2016

See weather overviewHow to use our weather pages